P/2005 S2 ( Skiff )

Japanese version
Home page
Updated on July 10, 2026

---------------------------------------------------------------------

* Profile

Discovery Date September 29, 2005
Magnitude 19.1 mag
Discoverer B. Skiff (Lowell Observatory)

* Orbital Elements

                    Epoch = 2006 July  4.0 TT
     T = 2006 June 27.50742 TT        Peri. = 229.71747
     e = 0.1964672                    Node  = 161.26715 2000.0
     q = 6.3995019 AU                 Incl. =   3.14072
       a =  7.9642076 AU   n = 0.04385208   P =  22.48 years

* Magnitudes Graph

        m1 = 7.5 + 5 log d + 10.0 log r

---------------------------------------------------------------------

The orbital elements are printed on CBET 5713.
The magnitudes graphs are made with Comet for Windows.

---------------------------------------------------------------------

Copyright(C) Seiichi Yoshida (comet@aerith.net). All rights reserved.